This is the latest recevied weather packets stored in our database for station/object N6WDO. If no packets are shown the sender has not sent any weather packets the latest 10 day(s).
| Time | Temp. | Humidity | Pressure | Rain* | Wind** | Luminosity | Snow |
|---|---|---|---|---|---|---|---|
| 1777479079 | 17.78° C | 50% | 1020.3 hPa | 0 mm | - | 385 W/m² | - |
| 1777478776 | 17.78° C | 51% | 1020.2 hPa | 0 mm | - | 370 W/m² | - |
| 1777478472 | 16.67° C | 52% | 1020.2 hPa | 0 mm | - | 362 W/m² | - |
| 1777478169 | 16.67° C | 51% | 1020.3 hPa | 0 mm | - | 341 W/m² | - |
| 1777477865 | 17.22° C | 53% | 1020.2 hPa | 0 mm | - | 325 W/m² | - |
| 1777477561 | 17.22° C | 57% | 1020.1 hPa | 0 mm | - | 312 W/m² | - |
| 1777477257 | 16.67° C | 55% | 1020.4 hPa | 0 mm | - | 296 W/m² | - |
| 1777476954 | 16.67° C | 60% | 1020.4 hPa | 0 mm | - | 282 W/m² | - |
| 1777476652 | 16.11° C | 52% | 1020.4 hPa | 0 mm | - | 267 W/m² | - |
| 1777476348 | 16.11° C | 50% | 1020.6 hPa | 0 mm | - | 255 W/m² | - |
| 1777476044 | 15.56° C | 55% | 1020.6 hPa | 0 mm | - | 194 W/m² | - |
| 1777475740 | 15.56° C | 53% | 1020.7 hPa | 0 mm | - | 187 W/m² | - |
| 1777475437 | 15.56° C | 63% | 1020.6 hPa | 0 mm | - | 198 W/m² | - |
| 1777475132 | 13.89° C | 71% | 1020.5 hPa | 0 mm | - | 194 W/m² | - |
| 1777474829 | 13.89° C | 76% | 1020.5 hPa | 0 mm | - | 181 W/m² | - |
| 1777474524 | 13.89° C | 70% | 1020.4 hPa | 0 mm | - | 166 W/m² | - |
| 1777474221 | 12.78° C | 75% | 1020.4 hPa | 0 mm | - | 154 W/m² | - |
| 1777473919 | 12.78° C | 78% | 1020.4 hPa | 0 mm | - | 142 W/m² | - |
| 1777473616 | 12.78° C | 76% | 1020.4 hPa | 0 mm | - | 129 W/m² | - |
| 1777473307 | 12.22° C | 77% | 1020.3 hPa | 0 mm | - | 116 W/m² | - |
| 1777473001 | 11.67° C | 79% | 1020.4 hPa | 0 mm | - | 89 W/m² | - |
| 1777472693 | 11.11° C | 82% | 1020.2 hPa | 0 mm | - | 71 W/m² | - |
| 1777472389 | 10° C | 87% | 1020.2 hPa | 0 mm | - | 61 W/m² | - |
| 1777472087 | 8.89° C | 89% | 1020.2 hPa | 0 mm | - | 39 W/m² | - |
| 1777471782 | 8.89° C | 90% | 1020.1 hPa | 0 mm | - | 38 W/m² | - |
* Rain latest hour (hover to see other rain measurements)
** Current wind speed in m/s (hover to see current wind gust speed)